GEFSGL_500_meanwind_222.txt.gz
Wind_Speed
23 23 23 22 22 21 22 22 22 22 22 22 21 21 22 22 21 22 22 22 22 23 22 23 23 24 25 25 24 24 24 24 25 26 26 26 27 27 26 27 27 27 28
24 23 22 22 21 21 21 21 21 21 21 21 21 21 21 21 21 21 21 22 22 22 22 22 23 23 23 23 24 24 24 24 24 24 25 26 26 26 26 26 26 26 28
24 23 22 21 21 21 21 21 20 20 21 20 20 20 20 20 20 20 19 19 20 21 21 21 21 23 23 23 23 23 23 23 24 24 24 24 24 25 25 26 26 27 28
24 23 22 22 22 21 21 21 20 21 21 20 19 19 19 19 19 18 18 18 18 19 20 20 21 21 22 22 22 23 23 23 23 23 23 23 23 24 25 26 27 27 27
23 22 22 22 21 21 21 22 21 21 21 20 19 18 18 18 19 18 18 18 19 20 20 21 20 20 20 21 22 23 23 23 23 23 23 23 23 24 25 26 26 26 26
22 21 21 21 21 22 22 22 22 21 20 20 18 18 18 18 19 19 19 19 19 19 20 19 20 20 20 21 21 21 21 22 23 23 22 23 23 24 24 24 25 26 27
21 21 20 20 20 22 22 22 20 20 19 19 18 18 18 18 19 19 19 18 18 19 19 20 20 20 21 21 21 21 21 21 22 21 21 21 22 22 23 24 25 25 26
22 22 21 21 22 23 22 21 20 19 19 18 18 17 18 18 18 18 19 18 18 19 20 19 19 19 20 20 20 20 20 20 20 20 20 21 22 22 22 22 23 24 24
23 22 22 22 23 22 22 21 20 19 18 19 18 18 18 18 18 18 18 18 18 18 18 18 18 19 20 19 19 18 18 19 19 20 20 20 21 21 21 22 22 23 23
23 23 22 23 22 22 21 21 20 19 18 18 18 18 17 17 17 17 17 17 16 17 17 17 17 17 18 19 20 19 18 18 19 19 20 20 20 21 21 21 22 23 23
23 23 23 23 23 22 21 20 19 18 17 17 17 16 16 16 16 15 16 16 16 16 16 17 17 16 17 18 18 18 18 19 19 19 20 20 20 21 22 22 22 23 23
23 23 23 22 22 21 20 19 18 17 15 16 15 15 15 15 15 15 15 16 16 15 15 16 17 17 17 17 18 18 19 19 19 19 20 20 21 21 22 22 23 23 23
23 23 22 21 21 20 19 18 17 16 15 15 16 16 16 15 15 15 14 14 14 15 15 15 16 16 17 18 18 19 19 19 19 20 20 20 21 22 22 23 23 23 23
23 23 23 22 21 19 18 18 18 17 16 17 17 17 16 15 14 14 13 14 14 14 14 15 15 15 15 16 17 18 19 20 20 20 20 20 21 20 21 21 21 22 22
24 24 23 22 20 19 18 19 18 17 17 17 17 16 15 14 13 13 13 13 13 13 13 13 13 14 15 15 16 18 19 19 19 19 19 19 19 19 19 20 20 20 20
25 24 23 21 19 18 19 18 18 17 17 16 15 15 14 14 13 13 13 13 12 12 13 13 13 14 14 15 15 16 16 17 18 18 17 18 18 18 19 19 19 19 19
24 22 21 20 19 18 18 18 16 16 15 15 15 14 14 13 12 12 12 11 11 12 12 12 12 13 14 14 14 15 15 16 16 16 16 17 17 17 18 19 19 19 19
23 22 21 19 18 18 16 16 16 15 15 15 15 14 13 13 12 11 11 11 11 11 11 11 12 12 13 14 14 14 15 15 15 16 16 16 17 17 18 19 19 19 19
22 21 19 17 16 16 15 15 15 15 15 14 14 14 14 13 12 11 11 11 11 11 11 12 12 12 13 13 13 13 14 14 14 15 16 17 17 18 19 19 20 19 19
21 19 17 17 16 15 15 15 15 15 15 15 15 14 14 14 12 12 12 12 11 11 11 11 12 12 12 12 12 12 12 13 13 14 15 16 17 18 19 19 19 18 18
20 19 17 17 15 15 15 16 16 15 15 14 15 15 15 14 13 13 13 12 12 11 12 12 12 12 11 11 11 12 13 13 14 14 15 15 16 17 18 18 17 16 16
19 18 18 17 16 16 16 16 16 15 15 15 15 15 15 14 14 14 13 12 12 12 12 12 12 11 11 12 12 12 12 13 14 14 14 15 15 16 16 17 16 15 14
20 19 18 17 16 16 16 16 16 16 16 16 16 16 16 15 15 14 14 13 13 12 13 13 12 11 12 12 12 12 12 13 14 14 14 14 14 15 15 15 14 14 13
19 18 18 18 17 17 16 16 16 16 16 16 16 16 16 16 15 14 14 13 13 13 13 13 12 12 12 12 13 13 13 13 14 14 14 13 13 14 14 13 13 13 13
18 17 17 17 17 17 17 16 16 16 16 16 16 16 16 15 14 14 13 12 12 12 11 11 12 12 13 13 13 13 13 13 13 13 13 13 13 13 13 13 12 12 12
17 17 17 16 16 16 16 16 16 15 15 15 15 15 14 14 13 12 12 11 11 11 11 11 12 12 12 12 12 12 12 12 12 12 12 12 12 12 11 12 11 11 11

GEFSGL_500_meanwind_228.txt.gz
Wind_Speed
25 25 25 24 24 23 24 23 23 23 24 24 24 25 24 24 24 25 25 25 25 24 24 24 24 24 25 25 25 25 25 25 24 24 23 24 25 26 27 27 28 28 29
25 25 25 24 24 23 23 23 23 24 24 25 25 24 24 23 24 24 24 24 24 24 24 24 24 25 26 26 25 25 25 24 24 23 23 23 24 24 25 26 27 27 28
25 25 24 25 25 24 23 23 23 23 24 24 24 24 24 23 23 23 23 23 23 23 24 24 25 25 25 25 25 24 23 22 23 23 22 23 23 24 25 25 25 26 27
25 25 25 24 24 24 24 23 23 23 23 23 23 23 23 22 23 23 23 23 23 23 23 24 25 25 25 25 24 24 24 23 23 23 23 23 22 23 24 25 25 26 27
25 25 24 24 23 23 23 22 22 22 23 23 22 22 23 23 23 23 24 24 23 23 23 23 23 23 24 23 23 23 22 23 23 23 22 23 22 22 23 23 25 25 26
25 25 24 23 23 23 22 21 21 22 22 22 21 22 22 23 23 24 23 22 22 22 22 22 22 22 22 21 21 21 21 21 22 23 22 22 22 22 23 23 24 25 26
26 25 24 24 23 22 21 21 22 22 22 22 22 22 21 21 22 22 21 20 20 21 20 20 19 19 19 18 18 19 20 20 21 22 23 23 23 23 23 24 24 25 25
25 24 23 23 23 22 22 22 22 23 23 23 23 22 21 20 20 20 19 19 18 19 19 18 17 17 18 18 18 19 20 20 21 21 22 22 23 23 24 24 24 24 24
24 24 24 23 23 23 23 23 23 23 23 23 22 21 20 20 19 19 18 18 17 17 17 17 17 17 17 18 18 19 20 20 20 21 22 23 23 23 23 24 24 24 25
25 25 25 24 24 24 24 23 22 22 22 21 20 20 20 19 19 18 18 17 16 16 17 17 18 18 19 18 18 19 20 21 20 21 22 23 23 22 23 24 24 25 25
26 26 25 25 25 24 24 22 22 22 21 20 20 20 19 19 19 19 19 18 18 17 17 18 19 19 20 20 20 20 21 21 21 21 22 22 22 22 23 23 24 24 24
26 26 25 25 25 24 23 22 21 21 21 21 20 20 19 19 19 19 19 19 18 17 17 17 18 19 20 20 20 20 20 21 21 21 21 21 21 21 22 23 23 24 23
26 25 25 25 25 24 23 22 21 21 20 20 20 20 19 19 18 18 18 18 18 18 17 17 18 18 18 19 19 20 20 21 20 21 21 21 21 21 22 22 22 23 22
25 25 26 26 25 24 22 21 20 20 20 19 19 19 18 18 17 17 17 17 17 18 17 17 17 16 17 18 19 20 20 19 20 20 20 20 21 21 22 22 22 22 22
25 26 26 26 24 23 22 21 20 19 19 19 19 19 19 18 17 17 16 16 16 16 16 15 16 16 17 18 18 18 19 19 20 20 20 20 20 20 20 21 22 21 21
26 27 26 25 24 22 21 20 20 20 19 19 19 18 18 18 17 16 16 15 15 15 15 15 15 15 16 16 17 18 18 18 18 19 20 20 19 19 19 20 20 20 20
26 26 25 24 23 21 21 21 20 19 19 18 18 17 17 17 16 16 16 16 15 15 14 14 14 14 14 15 15 16 16 16 17 17 18 19 19 19 19 19 20 20 20
26 25 24 23 22 21 21 20 20 19 18 18 18 17 17 16 16 15 15 15 14 13 13 13 14 14 14 13 14 15 16 16 17 18 18 18 18 18 18 19 19 20 20
26 25 24 23 22 21 20 20 19 19 19 18 18 18 17 17 16 15 15 15 14 14 13 14 14 14 14 14 15 16 17 16 17 17 17 17 18 17 18 18 18 19 19
25 25 24 23 22 22 20 20 20 20 19 18 18 18 17 17 16 15 15 14 15 15 14 14 13 13 14 15 15 16 16 17 17 17 17 17 18 17 18 18 18 18 19
25 24 24 23 22 21 21 21 20 19 18 18 18 18 18 17 16 15 14 14 14 14 15 14 13 13 14 14 13 14 15 16 17 17 18 18 18 18 18 18 18 18 17
24 24 23 22 21 21 21 21 20 19 18 18 18 17 17 16 16 15 15 14 14 14 14 13 13 12 13 13 13 14 15 15 16 16 17 17 18 18 18 18 17 16 15
24 22 22 21 21 21 21 20 20 19 19 18 17 17 17 16 16 15 15 14 14 14 14 13 13 13 13 13 14 14 14 15 15 15 16 16 17 17 17 17 16 16 15
22 21 21 21 21 20 20 19 19 19 19 18 17 17 17 16 15 14 14 14 14 14 13 13 13 14 14 14 14 14 14 14 14 14 15 16 16 16 16 16 16 15 14
21 21 20 20 20 19 19 19 19 19 18 17 17 16 15 14 14 13 14 15 14 14 14 13 14 14 14 14 14 14 14 14 15 14 14 15 15 15 15 15 15 14 13
21 20 20 20 20 18 18 19 18 17 16 15 14 14 14 13 14 14 14 15 15 14 14 14 15 15 15 14 14 14 13 13 14 14 14 15 15 15 15 14 14 14 13

GEFSGL_500_meanwind_234.txt.gz
Wind_Speed
23 23 23 22 21 21 22 22 22 23 23 23 23 24 24 24 24 25 26 27 27 27 28 28 28 28 28 28 26 26 25 26 25 25 24 25 25 25 27 27 28 28 29
24 23 23 22 22 22 22 22 22 22 23 23 23 23 24 25 24 24 25 25 26 26 27 27 27 27 27 27 26 26 25 25 25 25 24 25 24 24 25 27 27 28 28
24 24 23 23 22 22 22 22 22 22 22 23 23 23 24 24 24 24 24 25 25 26 27 26 26 26 26 26 25 25 25 25 25 25 25 24 24 24 25 26 27 27 28
25 24 24 24 23 23 22 21 21 22 22 23 23 23 23 22 23 23 24 25 25 25 25 25 25 24 24 25 26 26 25 25 25 25 24 23 23 24 25 26 27 27 28
26 24 24 24 24 23 22 22 22 22 23 22 22 23 23 23 22 23 23 24 24 24 24 24 24 24 24 25 25 26 26 25 25 24 24 23 23 24 24 24 25 26 26
25 24 24 24 24 23 23 23 24 24 24 23 22 22 22 22 23 23 23 23 23 23 23 22 23 24 23 24 24 24 25 25 25 24 24 24 23 23 23 23 24 24 25
25 24 24 24 24 24 25 25 25 25 24 23 23 23 23 23 23 23 23 22 22 22 22 22 23 23 22 22 23 23 23 24 24 24 24 23 22 22 22 22 23 24 24
25 25 24 25 25 26 27 26 26 24 24 24 24 24 23 23 23 22 22 21 20 20 20 21 22 23 22 23 23 23 23 23 23 23 23 22 21 22 22 23 23 23 24
26 26 26 26 26 26 26 26 25 24 24 24 23 23 23 22 21 20 20 19 19 19 19 20 20 21 22 23 23 23 23 22 22 23 23 23 23 22 22 23 24 24 24
27 27 27 27 27 26 26 25 24 23 23 23 22 22 21 19 19 18 18 18 19 19 19 19 19 19 20 21 22 22 23 23 23 23 23 23 23 23 24 25 25 24 24
27 27 27 27 27 26 25 24 23 22 21 21 21 20 20 19 18 19 18 17 17 18 18 18 19 19 19 21 22 23 23 24 24 24 24 25 25 25 25 25 25 24 23
27 26 26 26 26 25 24 24 22 21 20 20 20 19 18 18 18 18 17 17 17 17 18 18 18 18 19 19 20 21 23 23 23 23 24 24 24 24 24 24 23 23 23
26 26 26 25 24 24 24 23 21 20 20 19 19 18 18 18 17 17 16 15 16 16 17 17 17 17 17 18 19 20 21 22 22 22 22 22 23 23 24 24 24 23 23
26 26 25 25 24 24 23 22 21 20 19 19 18 18 18 18 17 16 15 15 16 16 17 17 16 16 16 17 18 19 19 19 20 20 21 21 22 22 22 23 24 23 23
26 26 26 26 25 23 23 22 21 20 19 19 18 17 17 17 17 16 16 16 16 16 16 15 14 14 15 15 16 17 18 19 20 20 20 21 21 21 22 23 23 23 22
27 26 26 25 24 23 22 21 21 21 20 19 18 18 18 18 17 16 16 16 16 16 15 14 14 14 15 16 17 17 18 18 19 20 20 21 21 22 22 23 23 22 22
27 26 25 24 24 23 22 21 20 21 20 19 18 18 17 17 17 16 16 15 15 15 14 14 14 15 16 17 17 17 18 18 18 19 19 20 21 21 22 22 22 23 22
26 26 25 24 23 22 21 20 20 20 20 18 17 17 17 16 16 15 15 14 14 15 15 15 15 15 16 16 17 17 18 18 18 18 19 20 20 21 21 22 22 22 23
26 25 24 23 22 21 21 20 21 21 20 19 17 17 16 16 15 15 15 15 15 15 14 14 14 14 14 15 16 16 17 17 17 18 19 20 20 21 21 21 22 22 22
25 25 24 23 22 21 21 20 20 20 19 18 17 16 16 16 16 16 15 15 14 14 14 14 14 14 14 15 16 16 16 16 16 17 18 18 19 19 20 20 21 21 21
25 24 23 23 23 22 21 20 20 20 19 17 17 17 17 17 17 16 15 14 14 14 15 14 13 13 14 14 14 15 15 15 16 16 16 17 18 18 19 20 20 20 20
24 24 23 23 22 21 20 20 20 19 18 18 18 17 16 16 15 15 16 15 15 15 15 15 14 14 14 13 13 14 15 16 16 17 17 17 17 18 18 19 19 19 19
24 23 23 23 21 19 18 18 18 18 18 17 16 16 15 15 15 16 15 15 15 15 14 14 14 14 14 13 14 14 15 15 16 17 17 17 17 17 17 17 18 18 17
23 22 22 21 19 18 17 17 17 17 17 15 14 15 15 16 16 15 15 14 14 14 14 14 14 15 15 14 14 15 15 16 16 17 17 18 18 17 16 16 17 17 17
22 22 22 20 19 18 18 18 18 18 16 15 15 16 17 17 16 15 14 14 13 13 13 14 15 15 14 15 15 16 16 16 16 16 17 17 17 16 16 16 16 16 16
21 21 20 19 18 17 18 18 17 16 15 15 15 16 16 16 15 14 14 14 14 14 15 15 15 16 16 16 16 16 16 16 16 16 16 16 15 16 16 15 15 15 16

GEFSGL_500_meanwind_240.txt.gz
Wind_Speed
23 23 24 24 23 23 24 23 24 24 24 25 25 25 25 25 26 26 27 28 29 29 30 30 31 31 31 30 30 30 30 29 29 29 28 28 28 28 27 28 28 28 28
23 23 23 23 23 23 23 24 24 24 24 25 25 25 25 26 25 26 26 27 27 28 29 29 30 31 31 30 30 30 29 29 29 29 28 28 27 27 28 28 29 29 29
24 24 23 24 23 23 24 24 23 23 23 24 24 25 25 24 25 25 26 27 27 27 28 28 29 29 29 29 29 29 28 28 28 27 27 27 27 28 29 29 29 30 30
24 24 24 24 24 23 23 24 23 23 23 24 24 24 24 24 25 25 26 26 26 26 26 27 27 27 28 28 28 28 28 28 28 27 27 27 27 28 29 29 29 29 29
25 24 24 24 24 24 24 24 24 23 24 24 25 24 24 25 25 25 25 25 26 26 25 25 26 26 27 28 29 29 28 28 28 28 27 27 27 27 29 29 29 30 30
26 26 25 25 25 25 25 25 25 25 24 25 25 25 24 23 24 23 24 25 26 26 25 25 26 26 27 27 28 28 28 28 28 28 27 27 27 27 28 28 28 29 29
26 26 26 26 25 25 26 25 25 25 25 25 24 24 23 23 23 23 23 24 24 25 26 26 27 27 28 28 29 29 29 29 29 28 28 27 27 28 28 28 28 28 29
27 27 27 26 26 26 26 26 25 24 25 25 24 24 23 23 23 23 23 23 23 23 24 25 25 26 26 27 29 29 29 29 29 29 28 27 27 27 28 28 28 28 28
28 27 27 26 26 27 26 26 25 25 25 25 24 23 23 23 22 22 21 22 21 21 21 22 24 24 24 25 26 26 27 28 28 28 28 28 27 27 27 28 28 28 27
28 28 27 27 26 26 26 26 25 25 25 25 23 23 22 22 22 21 21 20 21 21 21 21 22 23 23 24 24 24 25 26 27 28 27 27 27 27 27 27 27 27 27
28 28 28 27 27 26 26 26 25 24 24 23 23 22 22 21 21 21 21 21 21 20 20 20 21 22 22 23 23 23 24 25 26 26 26 25 25 26 26 26 26 26 26
28 28 28 27 27 27 26 26 25 24 22 22 22 22 21 21 21 21 21 21 21 20 20 20 20 20 21 21 21 21 22 22 23 23 24 24 24 25 24 25 25 25 25
28 28 28 27 28 27 26 25 24 23 23 23 22 22 21 21 20 20 19 19 20 20 19 19 19 19 19 19 18 18 18 19 20 21 21 22 23 23 23 23 24 25 25
28 28 29 28 28 27 26 25 24 24 23 23 22 21 21 20 20 20 20 19 18 18 18 19 19 19 18 18 18 18 18 18 19 20 20 21 21 22 22 22 22 23 23
29 29 29 28 28 27 26 25 24 23 23 22 22 22 21 20 19 19 18 17 17 17 17 17 18 18 17 17 17 17 18 18 18 19 19 19 19 20 21 21 21 21 22
29 28 28 28 27 26 25 24 24 23 23 23 22 21 21 19 19 18 17 17 16 16 17 17 16 16 17 17 17 17 18 18 19 19 18 18 18 19 20 21 21 21 22
28 28 27 27 26 26 25 25 24 23 23 23 21 20 20 19 19 18 18 17 17 17 17 16 16 16 17 17 17 17 17 17 17 18 18 18 18 19 19 20 20 21 21
28 27 27 26 26 26 26 25 24 23 22 22 21 20 19 19 19 19 19 18 18 18 18 17 16 16 17 17 16 16 17 17 17 17 18 18 18 18 19 19 20 20 21
28 27 27 27 27 26 26 25 24 22 22 21 20 20 19 18 18 19 19 19 19 19 19 18 17 17 16 16 17 17 17 17 17 17 17 18 18 18 19 19 19 20 20
27 27 27 27 27 26 26 25 23 22 21 20 19 19 18 17 17 18 18 18 19 19 18 18 18 17 17 17 17 17 17 17 17 18 18 18 18 18 19 20 20 20 20
26 26 26 26 26 26 25 24 22 21 20 19 19 18 18 17 17 18 18 17 17 18 18 17 17 17 17 17 16 16 16 16 17 17 17 18 18 19 19 20 20 20 20
26 26 26 26 26 26 24 23 21 20 19 19 19 19 19 18 18 18 17 17 17 16 17 17 17 17 16 16 16 15 16 16 16 16 17 17 18 18 18 19 19 20 20
26 26 25 25 24 23 22 21 20 20 19 20 19 19 19 18 18 17 17 16 16 16 17 17 17 17 16 16 15 15 16 16 17 17 17 17 17 17 18 19 19 19 20
25 25 24 23 22 22 21 20 19 18 18 18 18 18 18 18 18 17 17 16 16 17 17 17 17 17 16 16 16 16 17 17 17 17 18 18 17 17 18 19 20 20 20
24 23 22 21 21 20 20 20 19 17 17 17 17 17 17 17 17 18 18 18 18 18 18 18 17 17 17 17 16 16 16 17 17 17 17 17 18 18 18 19 20 20 20
23 23 22 22 21 20 20 19 18 17 16 16 16 16 17 17 17 17 18 17 18 18 18 18 18 17 16 16 16 16 16 17 17 17 17 17 18 18 18 19 19 18 18

GEFSGL_500_meanwind_246.txt.gz
Wind_Speed
23 22 22 22 23 22 22 22 21 22 23 23 24 24 24 25 27 28 28 28 28 29 30 31 31 31 31 31 31 31 31 31 30 30 31 30 30 31 30 32 32 32 31
23 22 22 22 22 22 22 22 22 23 24 24 24 25 25 25 27 27 27 27 28 29 29 30 30 30 30 30 30 30 31 31 31 31 31 31 31 31 31 31 31 32 31
22 22 22 23 23 23 23 23 23 23 23 24 24 25 24 25 25 26 26 26 27 27 28 28 28 28 28 29 29 30 30 30 31 31 32 32 32 32 32 32 32 32 31
21 21 22 23 23 23 23 23 24 24 24 24 24 24 24 24 24 24 25 25 26 27 27 27 27 27 27 28 29 29 29 30 31 31 31 31 32 32 32 33 32 31 31
22 22 23 23 23 23 23 24 25 25 24 24 23 24 24 24 25 24 25 25 25 25 26 27 27 27 28 28 28 28 29 29 30 30 30 30 31 32 32 32 32 31 32
22 22 23 23 23 24 24 25 25 25 25 24 24 24 24 24 24 23 24 24 24 25 26 27 27 28 28 28 28 29 29 29 29 29 29 29 30 30 31 32 32 31 31
23 23 23 23 24 24 25 25 25 25 25 25 24 24 24 24 23 23 24 25 25 25 25 26 27 28 28 29 29 29 29 29 28 28 28 29 29 29 30 30 30 30 30
24 24 24 24 24 25 26 26 25 25 25 25 24 24 24 23 23 23 24 25 25 25 25 25 26 26 27 27 27 27 28 27 27 27 28 28 28 28 28 29 28 28 29
25 25 24 25 25 26 26 26 26 25 25 25 25 24 24 23 23 23 24 24 23 23 23 23 24 25 25 26 26 26 27 27 27 27 27 28 28 28 28 28 28 29 29
24 24 25 26 26 26 26 26 25 24 24 24 25 24 24 24 24 24 23 23 22 22 22 22 23 24 24 24 25 25 25 25 26 26 27 27 27 27 27 27 28 28 28
25 26 26 26 26 26 26 25 25 24 23 23 23 24 23 24 24 24 23 22 22 22 22 23 23 23 23 23 23 23 24 24 24 25 25 25 25 25 26 26 27 28 28
26 26 26 27 26 26 26 25 24 24 23 23 23 23 23 23 23 23 23 23 22 22 22 23 23 23 22 22 22 23 23 24 24 24 24 24 24 25 25 25 25 26 28
26 27 27 27 26 26 26 26 25 24 23 23 23 23 23 23 22 22 23 23 22 21 21 22 23 23 24 23 23 22 23 23 23 23 22 23 23 22 22 23 23 24 25
26 27 27 27 27 26 26 25 24 23 23 22 22 22 22 22 22 22 21 21 21 21 21 21 21 22 22 22 22 22 22 22 23 22 21 21 21 21 21 21 22 22 22
27 27 26 26 27 26 25 24 23 23 22 21 21 21 21 21 21 21 20 20 20 21 21 21 21 21 21 22 21 21 21 21 21 20 19 19 20 20 20 20 21 21 21
28 27 27 27 27 26 25 25 24 24 22 20 20 20 20 21 21 20 20 21 21 21 21 21 21 21 21 21 21 20 19 19 19 20 19 20 20 20 21 21 21 21 20
29 29 28 28 28 27 26 26 25 24 23 21 21 20 20 20 20 20 20 20 20 21 21 21 21 21 21 21 20 20 20 19 19 20 20 20 20 20 21 21 21 20 20
29 29 29 28 28 27 27 27 25 24 23 22 21 21 21 20 20 20 19 19 19 19 20 20 20 19 19 19 19 19 19 19 19 19 19 19 20 20 21 21 21 21 21
29 28 28 28 28 28 28 26 26 24 22 21 21 21 21 20 21 20 20 19 19 19 19 19 19 18 18 18 18 18 18 18 18 19 19 19 20 21 21 21 21 21 21
28 28 28 27 28 27 26 25 24 22 22 21 21 20 20 20 20 20 19 19 18 18 19 19 19 19 18 18 18 18 18 18 18 18 18 19 19 20 21 22 21 21 22
28 27 27 26 26 25 24 23 22 21 21 20 19 19 19 19 19 19 19 19 18 18 18 18 19 19 19 19 19 19 19 19 19 20 20 20 20 20 21 21 22 22 23
26 26 25 25 25 24 23 22 20 19 19 18 18 18 19 19 19 19 18 18 18 18 18 18 18 18 19 19 19 20 20 20 21 21 21 21 20 20 20 21 22 22 22
26 25 25 24 23 22 21 20 19 18 18 18 18 19 19 19 19 19 18 18 18 18 18 18 18 18 19 19 20 20 21 21 22 21 21 21 21 21 20 20 21 21 21
25 25 24 23 22 22 20 19 18 18 18 18 19 19 20 19 18 18 17 17 17 17 17 17 17 18 18 19 20 20 21 21 21 21 21 21 21 21 20 20 20 19 20
25 24 24 23 22 21 20 19 18 18 18 18 19 19 19 19 18 17 17 17 17 17 17 18 18 18 17 18 19 19 20 20 20 20 20 19 19 19 19 19 19 18 18
25 24 23 23 22 21 20 19 18 18 18 18 19 19 18 18 18 18 18 17 17 18 17 17 17 17 17 17 17 17 17 18 18 18 18 17 17 17 17 17 18 18 18

GEFSGL_500_meanwind_252.txt.gz
Wind_Speed
22 22 22 23 23 24 24 24 25 25 24 24 25 25 25 26 26 26 26 26 26 27 27 28 28 29 29 30 30 30 29 29 28 28 28 29 29 29 28 29 29 29 29
22 22 22 23 24 25 25 25 25 25 25 25 25 25 26 26 26 25 25 26 26 27 27 27 27 27 28 28 29 28 28 28 28 28 29 29 29 29 30 29 29 30 30
22 23 23 24 24 25 25 25 25 25 25 25 26 26 25 25 25 24 25 24 25 25 25 25 25 26 27 27 28 28 28 28 28 29 29 29 29 30 30 30 30 30 30
22 23 23 24 24 24 24 24 24 25 25 26 27 26 25 25 25 25 25 24 24 24 24 24 25 26 26 27 28 28 28 28 29 29 29 29 29 29 30 30 30 30 30
22 23 24 24 24 24 24 25 25 26 26 26 27 27 26 25 25 25 25 25 25 25 25 25 25 25 26 27 27 27 27 28 29 29 29 29 29 29 30 30 30 30 29
23 23 24 24 24 25 25 25 26 26 26 26 27 26 26 26 25 26 26 26 26 26 25 25 25 26 27 27 27 27 28 29 29 29 29 29 29 29 29 30 29 29 29
24 24 25 25 25 26 25 26 26 26 26 26 26 27 26 26 26 26 26 26 26 25 25 25 25 25 26 26 27 27 28 28 28 28 28 28 28 28 29 29 29 29 28
24 24 24 25 26 26 26 26 26 26 27 27 27 26 26 26 26 26 26 26 26 25 25 25 25 25 26 26 25 25 26 26 27 27 27 27 28 28 29 29 29 30 29
24 25 25 26 27 26 26 26 26 27 27 27 27 26 26 26 26 26 25 25 25 25 25 25 25 25 25 26 26 25 25 25 26 26 27 27 27 27 28 28 29 29 29
25 25 26 27 27 27 27 27 27 27 27 27 26 27 26 26 26 24 24 24 25 25 25 26 26 26 26 26 25 25 25 24 24 24 24 25 26 26 26 27 28 28 28
25 26 27 28 28 27 27 28 28 27 27 27 26 26 26 26 25 24 24 24 24 24 25 25 25 25 25 25 24 25 25 25 24 25 25 25 26 26 26 26 26 26 26
26 27 28 28 28 28 28 28 28 27 27 27 27 27 26 25 25 25 25 25 24 24 24 25 24 24 25 25 25 25 25 26 26 25 25 25 25 25 25 24 24 24 25
27 27 27 27 27 28 28 29 29 28 28 27 27 26 26 25 25 25 25 25 24 24 25 25 24 23 24 24 25 25 26 26 26 26 26 25 25 24 23 23 24 24 23
26 26 26 26 27 28 28 29 28 28 28 27 26 26 26 26 26 25 25 25 25 24 24 23 23 23 24 24 24 24 24 25 25 26 25 25 25 24 23 23 23 23 23
26 26 27 27 28 28 29 29 28 28 28 27 27 27 26 26 26 26 25 25 25 24 23 23 23 23 23 24 24 24 25 25 25 24 24 24 24 23 23 23 22 22 22
26 26 27 28 29 30 30 30 28 28 27 27 27 27 27 27 26 25 24 24 24 24 24 24 23 23 23 24 24 24 24 24 24 24 23 23 23 23 23 23 23 22 22
27 28 29 29 30 30 30 30 29 28 26 25 26 26 26 26 25 25 24 24 24 24 24 24 24 24 24 24 24 24 24 25 25 25 24 23 22 22 22 22 23 23 23
28 29 29 30 30 30 29 28 27 26 25 26 26 26 25 25 25 25 24 24 24 24 25 24 24 24 25 25 24 24 24 24 24 24 24 23 22 22 21 21 22 22 23
27 28 29 29 29 29 28 27 25 25 25 25 24 24 24 24 23 23 23 23 24 24 24 24 24 24 24 24 24 24 24 24 24 23 23 22 22 22 22 22 22 22 22
27 28 29 29 28 28 27 26 25 24 23 23 23 22 22 22 22 21 22 22 22 22 23 23 23 23 23 23 23 23 22 22 22 23 23 23 22 22 22 22 22 22 22
28 28 29 29 28 27 26 25 24 23 23 23 22 22 21 21 21 21 21 21 22 22 22 22 22 23 22 22 21 21 21 21 21 21 22 22 22 22 22 22 22 22 22
28 28 28 28 27 27 26 25 24 24 23 22 22 22 21 21 22 22 22 22 22 21 21 21 21 21 20 19 19 19 20 20 20 20 21 21 22 23 24 24 23 22 22
28 28 28 28 27 26 25 25 25 24 23 22 22 21 21 21 22 22 21 21 21 21 21 21 20 19 19 18 18 19 19 19 20 20 20 20 20 21 22 22 22 22 21
28 27 27 27 26 25 25 24 24 23 22 21 21 22 22 22 22 21 21 20 21 21 20 20 19 19 18 18 18 18 18 19 19 20 20 19 19 19 19 20 21 21 21
27 26 26 26 26 25 25 24 23 22 21 21 21 22 23 23 23 22 21 21 20 20 20 19 19 18 18 17 17 17 18 18 18 18 18 18 18 18 18 18 19 19 20
26 26 26 26 25 24 24 23 22 21 21 21 21 22 23 22 23 23 22 21 20 20 19 18 18 17 17 17 17 17 16 17 16 17 17 17 17 17 18 18 19 19 20